FW4300 Weather Reports


Display with metric or nautical units.
time (UTC)temp
F
wind
direction
speed
MPH
gust
MPH
rain 1hr
in
rain 24hr
in
rain mn
in
humidity
%
barometer
mb
20260903100524 0 0.0 0.0 0.00 0.02 0.01 1016.3
20260903100026 0 0.0 0.0 0.00 0.02 0.01 1016.3
20260903095520 0 0.0 0.0 0.00 0.02 0.01 1016.3
20260903095019 0 0.0 0.0 0.00 0.02 0.01 1016.4
20260903094517 0 0.0 0.0 0.00 0.02 0.01 1016.2
20260903094017 0 0.0 0.0 0.00 0.02 0.01 1016.2
20260903093513 0 0.0 0.0 0.00 0.02 0.01 1016.2
20260903093013 0 0.0 0.0 0.00 0.02 0.01 1016.1
20260903092513 0 0.0 0.0 0.00 0.02 0.01 1016.2
20260903092011 0 0.0 0.0 0.00 0.02 0.01 1016.2
20260903091508 0 0.0 0.0 0.00 0.02 0.01 1016.2
20260903091007 0 0.0 0.0 0.00 0.02 0.01 1016.2
20260903090505 0 0.0 0.0 0.00 0.02 0.01 1016.1
20260903090004 0 0.0 0.0 0.00 0.02 0.01 1016.0
20260903085503 0 0.0 0.0 0.00 0.02 0.01 1016.0
20260903085000 0 0.0 0.0 0.00 0.02 0.01 1016.0
20260903084601 0 0.0 0.0 0.00 0.02 0.01 1016.0
20260903084058 0 0.0 0.0 0.00 0.02 0.01 1016.0
20260903083559 0 321 0.0 0.0 0.00 0.02 0.01 1016.0
20260903083054 0 321 0.0 0.0 0.00 0.02 0.01 1016.0
20260903082553 0 321 0.0 0.0 0.00 0.02 0.01 1016.1
20260903082052 74 318 0.0 0.0 0.00 0.02 0.01 80 1016.0
20260903081552 74 326 0.0 0.0 0.00 0.02 0.01 80 1016.1
20260903081052 74 326 0.0 0.0 0.00 0.02 0.01 80 1016.0
20260903080551 74 326 0.0 0.0 0.00 0.02 0.01 80 1016.0
20260903080051 74 326 0.0 0.0 0.00 0.02 0.01 80 1015.9
20260903075551 74 343 0.0 0.0 0.00 0.02 0.01 80 1015.9
20260903075050 74 343 0.0 0.0 0.00 0.02 0.01 80 1015.9
20260903074614 74 346 0.0 0.0 0.00 0.02 0.01 79 1016.0
20260903074049 74 32 0.0 0.0 0.00 0.02 0.01 79 1016.0
20260903073548 74 2 0.0 0.0 0.00 0.02 0.01 79 1015.9
20260903073055 75 327 0.0 0.0 0.00 0.02 0.01 79 1015.8
20260903072546 75 9 0.0 0.0 0.00 0.02 0.01 79 1016.0
20260903072045 75 29 0.0 0.0 0.00 0.02 0.01 79 1015.8
20260903071544 75 74 0.0 0.0 0.00 0.02 0.01 78 1016.0
20260903071041 75 37 0.0 0.0 0.00 0.02 0.01 78 1015.9
20260903070540 75 4 0.0 0.0 0.01 0.02 0.01 78 1015.9
20260903070039 75 33 0.0 0.0 0.01 0.02 0.01 78 1015.9
20260903065542 75 328 0.0 0.0 0.01 0.02 0.01 77 1015.9
20260903065038 75 334 0.0 0.0 0.01 0.02 0.01 76 1016.0
20260903064536 75 325 0.0 0.0 0.01 0.02 0.01 76 1016.0
20260903064035 75 352 0.0 0.0 0.01 0.02 0.01 76 1016.0
20260903063534 75 345 0.0 0.0 0.01 0.02 0.01 76 1015.9
20260903063032 75 2 0.0 0.0 0.01 0.02 0.01 76 1016.0
20260903062531 75 333 0.0 0.0 0.01 0.02 0.01 75 1016.0
20260903062029 75 323 0.0 0.0 0.01 0.02 0.01 75 1016.0
20260903061541 75 302 0.0 0.0 0.01 0.02 0.01 75 1016.0
20260903061026 75 321 0.0 0.0 0.01 0.02 0.01 74 1016.1
20260903060525 75 344 0.0 0.0 0.00 0.01 0.00 74 1016.2
20260903060024 75 332 0.0 0.0 0.00 0.01 0.00 73 1016.2
20260903055522 75 326 0.0 0.0 0.00 0.01 0.00 73 1016.2
20260903055020 75 290 0.0 0.0 0.00 0.01 0.00 72 1016.2
20260903054520 75 303 0.0 0.0 0.00 0.01 0.00 72 1016.2
20260903054019 75 320 0.0 0.0 0.00 0.01 0.00 71 1016.2
20260903053516 75 319 0.0 0.0 0.00 0.01 0.00 71 1016.3
20260903053014 75 319 0.0 0.0 0.00 0.01 0.00 71 1016.4
20260903052512 76 327 0.0 0.0 0.00 0.01 0.00 71 1016.4
20260903052011 76 351 0.0 0.0 0.00 0.01 0.00 71 1016.5
20260903051510 76 325 0.0 0.0 0.00 0.01 0.00 71 1016.5
20260903051008 76 331 0.0 0.0 0.00 0.01 0.00 72 1016.6
20260903050507 75 338 0.0 0.0 0.00 0.01 0.00 72 1016.6
20260903050007 75 20 0.0 0.0 0.00 0.01 0.00 72 1016.7
20260903045504 75 315 0.0 0.0 0.00 0.01 0.00 71 1016.8
20260903045002 75 307 0.0 0.0 0.00 0.01 0.00 71 1016.9
20260903044502 75 338 0.0 0.0 0.00 0.01 0.00 71 1016.9
20260903044100 75 360 0.0 0.0 0.00 0.01 0.00 71 1017.0
20260903043559 75 27 0.0 0.0 0.00 0.01 0.00 71 1017.0
20260903043056 76 321 0.0 0.0 0.00 0.01 0.00 71 1017.1
20260903042555 76 302 0.0 0.0 0.00 0.01 0.00 71 1017.1
20260903042055 76 24 0.0 0.0 0.00 0.01 0.00 71 1017.2
20260903041608 76 346 0.0 0.0 0.00 0.01 0.00 71 1017.2
20260903041050 76 337 0.0 0.0 0.00 0.01 0.00 71 1017.3
20260903040553 76 327 0.0 0.0 0.00 0.01 0.00 71 1017.1
20260903040050 76 326 0.0 0.0 0.00 0.01 0.00 71 1017.2
20260903035551 76 319 0.0 0.0 0.00 0.01 0.01 71 1017.2
20260903035051 76 342 0.0 0.0 0.00 0.01 0.01 71 1017.2
20260903034547 76 338 0.0 0.0 0.00 0.01 0.01 71 1017.3
20260903034049 76 320 0.0 0.0 0.00 0.01 0.01 71 1017.3
20260903033546 76 316 0.0 0.0 0.00 0.01 0.01 71 1017.3
20260903033046 76 8 0.0 0.0 0.00 0.01 0.01 71 1017.3
20260903032546 76 307 0.0 0.0 0.00 0.01 0.01 71 1017.3
20260903032046 76 303 0.0 0.0 0.00 0.01 0.01 71 1017.4
20260903031546 76 302 0.0 0.0 0.00 0.01 0.01 70 1017.4
20260903031050 76 304 0.0 0.0 0.00 0.01 0.01 70 1017.4
20260903030546 76 304 0.0 0.0 0.00 0.01 0.01 69 1017.4
20260903030046 76 305 0.0 0.0 0.00 0.01 0.01 69 1017.5
20260903025546 76 306 0.0 0.0 0.00 0.01 0.01 69 1017.4
20260903025045 76 331 0.0 0.0 0.00 0.01 0.01 69 1017.5
20260903024545 76 341 0.0 0.0 0.00 0.01 0.01 69 1017.5
20260903024048 76 341 0.0 0.0 0.00 0.01 0.01 69 1017.4
20260903023543 76 349 0.0 0.0 0.00 0.01 0.01 68 1017.4
20260903023045 77 349 0.0 0.0 0.00 0.01 0.01 68 1017.5
20260903022543 77 320 0.0 0.0 0.00 0.01 0.01 68 1017.3
20260903022047 77 319 0.0 0.0 0.00 0.01 0.01 67 1017.3
20260903021544 77 319 0.0 0.0 0.00 0.01 0.01 67 1017.2
20260903021044 77 319 0.0 0.0 0.00 0.01 0.01 67 1017.3
20260903020545 77 319 0.0 0.0 0.00 0.01 0.01 66 1017.3
20260903020050 77 329 0.0 0.0 0.00 0.01 0.01 66 1017.3
20260903015543 77 329 0.0 0.0 0.00 0.01 0.01 66 1017.2
20260903015043 77 330 0.0 0.0 0.00 0.01 0.01 66 1017.2
20260903014605 77 330 0.0 0.0 0.00 0.01 0.01 66 1017.3
20260903014043 77 330 0.0 0.0 0.00 0.01 0.01 66 1017.2
20260903013542 78 330 0.0 0.0 0.00 0.01 0.01 66 1017.3
20260903013057 78 330 0.0 0.0 0.00 0.01 0.01 66 1017.3
20260903012541 78 330 0.0 0.0 0.00 0.01 0.01 66 1017.3
20260903012042 78 330 0.0 0.0 0.00 0.01 0.01 66 1017.2
20260903011609 78 330 0.0 0.0 0.00 0.01 0.01 66 1017.2
20260903011041 78 330 0.0 0.0 0.00 0.01 0.01 65 1017.3
20260903010543 78 330 0.0 0.0 0.00 0.01 0.01 65 1017.3
20260903010058 78 330 0.0 0.0 0.00 0.01 0.01 66 1017.3
20260903005542 78 330 0.0 0.0 0.00 0.01 0.01 65 1017.3
20260903005041 78 330 0.0 0.0 0.00 0.01 0.01 65 1017.2
20260903004541 78 330 0.0 0.0 0.00 0.01 0.01 65 1017.1
20260903004041 79 330 0.0 0.0 0.00 0.01 0.01 65 1017.2
20260903003540 79 330 0.0 0.0 0.00 0.01 0.01 65 1017.0
20260903003049 80 270 0.0 0.0 0.00 0.01 0.01 64 1017.0
20260903002540 80 216 0.0 0.0 0.00 0.01 0.01 64 1016.8
20260903002043 81 215 0.0 0.0 0.00 0.01 0.01 64 1016.7
20260903001552 81 215 0.0 0.0 0.00 0.01 0.01 64 1016.7
20260903001039 81 216 0.0 0.0 0.00 0.01 0.01 64 1016.7
20260903000540 80 230 0.0 0.0 0.00 0.01 0.01 64 1016.5
20260903000046 80 202 0.0 0.0 0.00 0.01 0.01 64 1016.5
20260902235539 80 195 0.0 0.0 0.00 0.01 0.01 64 1016.4
20260902235041 80 168 0.0 0.0 0.00 0.01 0.01 64 1016.3
20260902234542 81 167 0.0 0.0 0.00 0.01 0.01 64 1016.3
20260902234039 81 165 0.0 0.0 0.00 0.01 0.01 64 1016.3
20260902233541 81 132 0.0 0.0 0.00 0.01 0.01 64 1016.3
20260902233038 81 147 0.0 0.0 0.00 0.01 0.01 64 1016.3
20260902232537 81 134 0.0 0.0 0.00 0.01 0.01 64 1016.2
20260902232041 81 155 0.0 0.0 0.00 0.01 0.01 64 1016.3
20260902231545 81 174 0.0 0.0 0.00 0.01 0.01 64 1016.2
20260902231037 81 151 0.0 0.0 0.00 0.01 0.01 64 1016.2
20260902230536 81 124 0.0 0.0 0.00 0.01 0.01 64 1016.2
20260902230047 81 120 0.0 0.0 0.00 0.01 0.01 64 1016.1
20260902225536 81 127 0.0 0.0 0.00 0.01 0.01 64 1016.0
20260902225037 82 82 0.0 0.0 0.00 0.01 0.01 63 1016.0
20260902224538 82 95 0.0 0.0 0.00 0.01 0.01 63 1016.0
20260902224036 82 121 0.0 0.0 0.00 0.01 0.01 63 1016.0
20260902223535 82 155 0.0 0.0 0.00 0.01 0.01 62 1016.0
20260902223041 83 108 0.0 0.0 0.00 0.01 0.01 62 1015.9
20260902222538 83 146 0.0 0.0 0.00 0.01 0.01 61 1015.9
20260902222034 83 176 0.0 1.0 0.00 0.01 0.01 61 1016.1
20260902221536 84 120 0.0 1.0 0.00 0.01 0.01 60 1016.0
20260902221037 84 81 0.0 0.0 0.00 0.01 0.01 60 1015.9
20260902220534 85 80 0.0 0.0 0.00 0.01 0.01 59 1016.0
20260902220041 85 135 0.0 0.0 0.00 0.01 0.01 59 1016.0
20260902215533 85 127 0.0 0.0 0.00 0.01 0.01 58 1015.9
20260902215034 86 119 0.0 0.0 0.00 0.01 0.01 58 1016.0
20260902214540 86 122 0.0 0.0 0.00 0.01 0.01 58 1016.0
20260902214034 86 181 0.0 0.0 0.00 0.01 0.01 57 1015.9
20260902213532 86 142 0.0 0.0 0.00 0.01 0.01 57 1016.0
20260902213032 86 121 0.0 0.0 0.00 0.01 0.01 57 1016.0
20260902212532 86 160 0.0 0.0 0.00 0.01 0.01 57 1015.9
20260902212032 86 181 0.0 0.0 0.00 0.01 0.01 58 1015.9
20260902211532 86 120 0.0 0.0 0.00 0.01 0.01 59 1016.0
20260902211031 86 103 0.0 0.0 0.00 0.01 0.01 59 1016.0
20260902210531 86 154 0.0 0.0 0.00 0.01 0.01 59 1016.0
20260902210031 86 112 0.0 0.0 0.00 0.01 0.01 58 1016.0
20260902205530 86 90 0.0 0.0 0.00 0.01 0.01 58 1016.0
20260902205033 87 141 0.0 0.0 0.00 0.01 0.01 57 1016.1
20260902204529 87 184 0.0 2.0 0.00 0.01 0.01 57 1016.1
20260902204029 87 171 0.0 2.0 0.00 0.01 0.01 58 1016.0
20260902203529 87 234 0.0 0.0 0.01 0.01 0.01 58 1016.0
20260902203029 87 129 0.0 0.0 0.01 0.01 0.01 58 1016.0
20260902202529 86 128 0.0 0.0 0.01 0.01 0.01 59 1016.0
20260902202028 86 200 0.0 0.0 0.01 0.01 0.01 60 1016.0
20260902201527 85 198 0.0 0.0 0.01 0.01 0.01 61 1016.0
20260902201028 85 205 0.0 1.0 0.01 0.01 0.01 60 1016.0
20260902200526 85 144 0.0 1.0 0.01 0.01 0.01 59 1016.1
20260902200027 86 138 0.0 3.0 0.01 0.01 0.01 60 1016.2
20260902195525 86 213 0.0 3.0 0.01 0.01 0.01 60 1016.2
20260902195027 86 123 0.0 0.0 0.01 0.01 0.01 60 1016.2
20260902194537 86 163 0.0 5.0 0.01 0.01 0.01 59 1016.2
20260902194025 86 178 0.0 5.0 0.01 0.01 0.01 57 1016.3
20260902193524 87 130 0.0 0.0 0.00 0.00 0.00 57 1016.3
20260902193024 87 198 0.0 0.0 0.00 0.00 0.00 57 1016.3
20260902192523 85 127 0.0 0.0 0.00 0.00 0.00 59 1016.3
20260902192023 85 193 0.0 0.0 0.00 0.00 0.00 59 1016.4
20260902191523 85 163 0.0 0.0 0.00 0.00 0.00 59 1016.5
20260902191022 85 138 0.0 0.0 0.00 0.00 0.00 60 1016.4
20260902190521 86 137 0.0 0.0 0.00 0.00 0.00 59 1016.4
20260902190022 86 153 0.0 0.0 0.00 0.00 0.00 59 1016.4
20260902185521 87 176 0.0 0.0 0.00 0.00 0.00 59 1016.4
20260902185022 87 203 0.0 4.0 0.00 0.00 0.00 58 1016.4
20260902184527 87 186 0.0 4.0 0.00 0.00 0.00 57 1016.4
20260902184021 88 174 0.0 0.0 0.00 0.00 0.00 56 1016.2
20260902183520 89 134 0.0 0.0 0.00 0.00 0.00 56 1016.3
20260902183020 89 173 0.0 2.0 0.00 0.00 0.00 54 1016.1
20260902182520 89 181 0.0 2.0 0.00 0.00 0.00 54 1016.0
20260902182019 89 169 0.0 4.0 0.00 0.00 0.00 53 1016.2
20260902181518 90 196 0.0 2.0 0.00 0.00 0.00 53 1016.3
20260902181019 89 198 0.0 0.0 0.00 0.00 0.00 54 1016.4
20260902180517 89 207 0.0 2.0 0.00 0.00 0.00 54 1016.4
20260902180017 89 150 0.0 2.0 0.00 0.00 0.00 55 1016.4
20260902175516 89 210 0.0 5.0 0.00 0.00 0.00 55 1016.4
20260902175017 89 196 0.0 5.0 0.00 0.00 0.00 54 1016.6
20260902174514 89 136 0.0 0.0 0.00 0.00 0.00 54 1016.7
20260902174015 88 156 0.0 0.0 0.00 0.00 0.00 55 1016.8
20260902173515 88 203 0.0 0.0 0.00 0.00 0.00 55 1016.8
20260902173021 88 221 0.0 3.0 0.00 0.00 0.00 54 1017.0
20260902172513 89 193 0.0 3.0 0.00 0.00 0.00 54 1017.0
20260902172014 89 195 0.0 0.0 0.00 0.00 0.00 53 1017.0
20260902171514 90 147 0.0 7.0 0.00 0.00 0.00 53 1017.0
20260902171018 90 159 0.0 7.0 0.00 0.00 0.00 52 1017.0
20260902170513 90 174 0.0 3.0 0.00 0.00 0.00 52 1017.0
20260902170017 91 200 0.0 1.0 0.00 0.00 0.00 50 1017.2
20260902165615 90 119 0.0 1.0 0.00 0.00 0.00 52 1017.2
20260902165016 90 184 0.0 3.0 0.00 0.00 0.00 50 1017.3
20260902164512 90 214 0.0 0.0 0.00 0.00 0.00 50 1017.4
20260902164012 91 115 0.0 2.0 0.00 0.00 0.00 52 1017.5
20260902163511 91 185 0.0 2.0 0.00 0.00 0.00 52 1017.6
20260902163010 90 225 0.0 1.0 0.00 0.00 0.00 52 1017.8
20260902162508 90 131 0.0 0.0 0.00 0.00 0.00 55 1017.8
20260902162007 89 199 0.0 0.0 0.00 0.00 0.00 54 1017.8
20260902161509 88 177 0.0 0.0 0.00 0.00 0.00 58 1017.9
20260902161007 89 143 0.0 0.0 0.00 0.00 0.00 56 1017.9
20260902160506 89 158 0.0 0.0 0.00 0.00 0.00 57 1017.9
20260902160008 88 174 0.0 2.0 0.00 0.00 0.00 56 1017.8
20260902155507 87 178 0.0 2.0 0.00 0.00 0.00 57 1018.0
20260902155006 87 171 0.0 1.0 0.00 0.00 0.00 58 1018.1
20260902154508 87 180 0.0 0.0 0.00 0.00 0.00 57 1018.1
20260902154006 88 136 0.0 0.0 0.00 0.00 0.00 58 1017.9
20260902153504 87 217 0.0 0.0 0.00 0.00 0.00 58 1018.0
20260902153005 87 109 0.0 0.0 0.00 0.00 0.00 60 1018.1
20260902152508 87 164 0.0 1.0 0.00 0.00 0.00 60 1018.1
20260902152004 87 152 0.0 3.0 0.00 0.00 0.00 60 1018.1
20260902151506 87 158 0.0 2.0 0.00 0.00 0.00 59 1018.1
20260902151005 87 153 0.0 1.0 0.00 0.00 0.00 59 1018.2
20260902150503 87 162 0.0 5.0 0.00 0.00 0.00 58 1018.1
20260902150004 87 148 0.0 5.0 0.00 0.00 0.00 57 1018.3
20260902145504 88 115 0.0 1.0 0.00 0.00 0.00 56 1018.4
20260902145003 88 217 0.0 0.0 0.00 0.00 0.00 56 1018.4
20260902144502 88 140 0.0 1.0 0.00 0.00 0.00 56 1018.3
20260902144002 88 126 0.0 1.0 0.00 0.00 0.00 56 1018.4
20260902143559 87 144 0.0 0.0 0.00 0.00 0.00 58 1018.4
20260902143108 86 166 0.0 1.0 0.00 0.00 0.00 60 1018.4
20260902142600 86 140 0.0 0.0 0.00 0.00 0.00 60 1018.4
20260902142101 86 67 0.0 2.0 0.00 0.00 0.00 60 1018.4
20260902141600 86 115 0.0 2.0 0.00 0.00 0.00 60 1018.5
20260902141100 87 110 0.0 0.0 0.00 0.00 0.00 60 1018.6
20260902140559 87 160 0.0 0.0 0.00 0.00 0.00 59 1018.6
20260902140057 86 96 0.0 0.0 0.00 0.00 0.00 60 1018.7
20260902135557 86 147 0.0 0.0 0.00 0.00 0.00 60 1018.7
20260902135058 86 89 0.0 0.0 0.00 0.00 0.00 59 1018.7
20260902134605 86 137 0.0 0.0 0.00 0.00 0.00 59 1018.7
20260902134057 86 139 0.0 0.0 0.00 0.00 0.00 59 1018.7
20260902133555 86 110 0.0 0.0 0.00 0.00 0.00 59 1018.7
20260902133102 86 166 0.0 0.0 0.00 0.00 0.00 60 1018.6
20260902132555 86 139 0.0 0.0 0.00 0.00 0.00 60 1018.5
20260902132054 86 174 0.0 0.0 0.00 0.00 0.00 61 1018.5
20260902131603 86 152 0.0 0.0 0.00 0.00 0.00 62 1018.6
20260902131057 86 108 0.0 0.0 0.00 0.00 0.00 62 1018.6
20260902130553 86 117 0.0 0.0 0.00 0.00 0.00 61 1018.5
20260902130052 87 106 0.0 4.0 0.00 0.00 0.00 62 1018.5
20260902125555 86 117 0.0 4.0 0.00 0.00 0.00 63 1018.4
20260902125053 85 150 0.0 4.0 0.00 0.00 0.00 65 1018.4
20260902124549 85 156 0.0 0.0 0.00 0.00 0.00 65 1018.3
20260902124047 84 127 0.0 0.0 0.00 0.00 0.00 66 1018.3
20260902123545 82 324 0.0 0.0 0.00 0.00 0.00 66 1018.3
20260902123044 81 334 0.0 0.0 0.00 0.00 0.00 67 1018.3
20260902122542 80 309 0.0 0.0 0.00 0.00 0.00 67 1018.2
20260902122043 80 307 0.0 0.0 0.00 0.00 0.00 67 1018.3
20260902121547 80 312 0.0 0.0 0.00 0.00 0.00 68 1018.2
20260902121039 79 335 0.0 0.0 0.00 0.00 0.00 68 1018.3
20260902120538 79 342 0.0 0.0 0.00 0.00 0.00 69 1018.2
20260902120041 79 321 0.0 0.0 0.00 0.00 0.00 70 1018.1
20260902115537 78 314 0.0 0.0 0.00 0.00 0.00 70 1018.0
20260902115036 78 359 0.0 0.0 0.00 0.00 0.00 71 1017.9
20260902114541 78 344 0.0 1.0 0.00 0.00 0.00 72 1017.9
20260902114033 77 326 0.0 1.0 0.00 0.00 0.00 72 1017.9
20260902113532 77 331 0.0 4.0 0.00 0.00 0.00 74 1017.8
20260902113031 77 338 0.0 4.0 0.00 0.00 0.00 75 1017.8
20260902112533 76 350 0.0 4.0 0.00 0.00 0.00 76 1017.7
20260902112029 76 345 0.0 4.0 0.00 0.00 0.00 77 1017.7
20260902111530 76 351 0.0 3.0 0.00 0.00 0.00 77 1017.7
20260902111026 75 6 0.0 4.0 0.00 0.00 0.00 77 1017.6
20260902110527 75 315 0.0 4.0 0.00 0.00 0.00 77 1017.6
20260902110032 75 330 0.0 3.0 0.00 0.00 0.00 77 1017.6
20260902105525 74 12 0.0 0.0 0.00 0.00 0.00 77 1017.6
20260902105025 74 326 0.0 0.0 0.00 0.00 0.00 78 1017.5
20260902104543 74 331 0.0 0.0 0.00 0.00 0.00 78 1017.4
20260902104024 74 333 0.0 0.0 0.00 0.00 0.00 78 1017.4
20260902103523 0 0.0 0.0 0.00 0.00 0.00 1017.3
20260902103021 0 0.0 0.0 0.00 0.00 0.00 1017.3
20260902102519 0 0.0 0.0 0.00 0.00 0.00 1017.4
20260902102018 0 0.0 0.0 0.00 0.00 0.00 1017.3
20260902101516 0 0.0 0.0 0.00 0.00 0.00 1017.3
20260902101016 0 0.0 0.0 0.00 0.00 0.00 1017.3